BEIDOU-3 G1 (C59)

Last updated on Sun Apr 12 2026 00:03:31 GMT+0000 (Coordinated Universal Time)

1 43683U 18085A 26101.42976227 -.00000085 00000+0 00000+0 0 9997 2 43683 2.9044 99.1827 0012830 291.4494 117.2108 1.00649740 27390
UTC large
Height (km)
Speed (km/s)
/
Latitude / Longitude
Inclination (degrees)
Orbital Period (minutes)
Azimuth
Elevation
Range (km)
Doppler Factor

Next 0 passes for location: London (51.5072 / 0.1276)

Sorry there are no passes over London.